• In Deutschland
  • Länderverzeichnis
  • Für 7 Tage
  • Wassertemperatur
  • Satellitenkarten
  • Wetterkarte
  • Widgets
  • user-avatar
    Anmelden

    Stündliche Wetter Paralia

    Heute, 23 Mai, Mittwoch

    Zeit Temperatur Niederschläge Wind Luftdruck Luftfeuchtigkeit
    00:00 +21°C° 0 mm 1 m/S 750 mmHg 78%
    01:00 +20°C° 0 mm 2 m/S 749 mmHg 78%
    02:00 +20°C° 0 mm 2 m/S 749 mmHg 78%
    03:00 +20°C° 0 mm 2 m/S 749 mmHg 78%
    04:00 +20°C° 0 mm 2 m/S 749 mmHg 78%
    05:00 +21°C° 0 mm 2 m/S 749 mmHg 71%
    06:00 +24°C° 0 mm 2 m/S 749 mmHg 64%
    07:00 +26°C° 0 mm 2 m/S 749 mmHg 56%
    08:00 +28°C° 0,1 mm 2 m/S 749 mmHg 50%
    09:00 +29°C° 0,1 mm 2 m/S 749 mmHg 45%
    10:00 +31°C° 0,1 mm 2 m/S 749 mmHg 39%
    11:00 +31°C° 0,3 mm 3 m/S 749 mmHg 42%
    12:00 +30°C° 0,3 mm 3 m/S 749 mmHg 44%
    13:00 +30°C° 0,3 mm 3 m/S 749 mmHg 47%
    14:00 +29°C° 0,5 mm 4 m/S 748 mmHg 50%
    15:00 +28°C° 0,5 mm 4 m/S 748 mmHg 54%
    16:00 +28°C° 0,5 mm 4 m/S 748 mmHg 57%
    17:00 +26°C° 0,1 mm 3 m/S 748 mmHg 64%
    18:00 +24°C° 0,1 mm 3 m/S 748 mmHg 71%
    19:00 +23°C° 0,1 mm 2 m/S 748 mmHg 77%
    20:00 +21°C° 0 mm 2 m/S 748 mmHg 81%
    21:00 +20°C° 0 mm 2 m/S 748 mmHg 85%
    22:00 +21°C° 0 mm 1 m/S 748 mmHg 89%
    23:00 +21°C° 0 mm 1 m/S 748 mmHg 91%

    Morgen, 24 Mai, Donnerstag

    Zeit Temperatur Niederschläge Wind Luftdruck Luftfeuchtigkeit
    00:00 +20°C° 0 mm 1 m/S 748 mmHg 92%
    01:00 +20°C° 0 mm 1 m/S 748 mmHg 94%
    02:00 +20°C° 0,1 mm 1 m/S 747 mmHg 95%
    03:00 +20°C° 0,1 mm 1 m/S 747 mmHg 95%
    04:00 +20°C° 0,1 mm 1 m/S 747 mmHg 95%
    05:00 +21°C° 0 mm 1 m/S 747 mmHg 90%
    06:00 +22°C° 0 mm 1 m/S 747 mmHg 85%
    07:00 +23°C° 0 mm 1 m/S 748 mmHg 80%
    08:00 +24°C° 0,1 mm 1 m/S 747 mmHg 73%
    09:00 +25°C° 0,1 mm 1 m/S 747 mmHg 67%
    10:00 +27°C° 0,1 mm 2 m/S 747 mmHg 60%
    11:00 +27°C° 0,2 mm 2 m/S 747 mmHg 59%
    12:00 +27°C° 0,2 mm 2 m/S 747 mmHg 58%
    13:00 +28°C° 0,2 mm 2 m/S 747 mmHg 56%
    14:00 +27°C° 0,4 mm 2 m/S 746 mmHg 59%
    15:00 +27°C° 0,4 mm 2 m/S 746 mmHg 62%
    16:00 +26°C° 0,4 mm 2 m/S 746 mmHg 65%
    17:00 +25°C° 0,2 mm 2 m/S 746 mmHg 72%
    18:00 +23°C° 0,2 mm 2 m/S 746 mmHg 78%
    19:00 +22°C° 0,2 mm 1 m/S 746 mmHg 84%
    20:00 +22°C° 0 mm 1 m/S 746 mmHg 86%
    21:00 +21°C° 0 mm 1 m/S 746 mmHg 88%
    22:00 +21°C° 0 mm 1 m/S 746 mmHg 90%
    23:00 +21°C° 0 mm 1 m/S 746 mmHg 91%

    übermorgen, 25 Mai, Freitag

    Zeit Temperatur Niederschläge Wind Luftdruck Luftfeuchtigkeit
    00:00 +21°C° 0 mm 1 m/S 746 mmHg 91%
    01:00 +20°C° 0 mm 1 m/S 746 mmHg 91%
    02:00 +20°C° 0 mm 1 m/S 746 mmHg 91%
    03:00 +20°C° 0 mm 1 m/S 746 mmHg 90%
    04:00 +20°C° 0 mm 1 m/S 746 mmHg 90%
    05:00 +21°C° 0 mm 1 m/S 746 mmHg 83%
    06:00 +23°C° 0 mm 1 m/S 746 mmHg 76%
    07:00 +24°C° 0 mm 1 m/S 746 mmHg 69%
    08:00 +26°C° 0 mm 2 m/S 746 mmHg 62%
    09:00 +27°C° 0 mm 2 m/S 746 mmHg 56%
    10:00 +29°C° 0 mm 2 m/S 746 mmHg 49%
    11:00 +29°C° 0,4 mm 2 m/S 746 mmHg 49%
    12:00 +29°C° 0,4 mm 2 m/S 746 mmHg 50%
    13:00 +29°C° 0,4 mm 2 m/S 746 mmHg 50%
    14:00 +29°C° 0,6 mm 2 m/S 746 mmHg 51%
    15:00 +28°C° 0,6 mm 2 m/S 746 mmHg 53%
    16:00 +27°C° 0,6 mm 2 m/S 746 mmHg 55%
    17:00 +26°C° 0,2 mm 2 m/S 746 mmHg 60%
    18:00 +25°C° 0,2 mm 2 m/S 746 mmHg 66%
    19:00 +23°C° 0,2 mm 1 m/S 747 mmHg 71%
    20:00 +22°C° 0 mm 1 m/S 747 mmHg 73%
    21:00 +22°C° 0 mm 1 m/S 747 mmHg 74%
    22:00 +21°C° 0 mm 1 m/S 747 mmHg 76%
    23:00 +20°C° 0 mm 2 m/S 747 mmHg 75%

    26 Mai, Samstag

    Zeit Temperatur Niederschläge Wind Luftdruck Luftfeuchtigkeit
    00:00 +19°C° 0 mm 2 m/S 747 mmHg 75%
    01:00 +19°C° 0 mm 2 m/S 747 mmHg 74%
    02:00 +19°C° 0 mm 2 m/S 747 mmHg 74%
    03:00 +19°C° 0 mm 2 m/S 747 mmHg 74%
    04:00 +19°C° 0 mm 2 m/S 747 mmHg 74%
    05:00 +20°C° 0 mm 2 m/S 747 mmHg 69%
    06:00 +23°C° 0 mm 2 m/S 748 mmHg 65%
    07:00 +25°C° 0 mm 2 m/S 748 mmHg 60%
    08:00 +26°C° 0 mm 2 m/S 748 mmHg 54%
    09:00 +28°C° 0 mm 2 m/S 748 mmHg 48%
    10:00 +29°C° 0 mm 3 m/S 749 mmHg 42%
    11:00 +29°C° 0 mm 3 m/S 748 mmHg 41%
    12:00 +30°C° 0 mm 3 m/S 748 mmHg 39%
    13:00 +30°C° 0 mm 3 m/S 748 mmHg 37%
    14:00 +30°C° 0 mm 3 m/S 748 mmHg 39%
    15:00 +29°C° 0 mm 3 m/S 748 mmHg 40%
    16:00 +29°C° 0 mm 3 m/S 748 mmHg 42%
    17:00 +27°C° 0 mm 3 m/S 748 mmHg 48%
    18:00 +25°C° 0 mm 3 m/S 748 mmHg 53%
    19:00 +24°C° 0 mm 2 m/S 748 mmHg 59%
    20:00 +23°C° 0 mm 2 m/S 748 mmHg 60%
    21:00 +21°C° 0 mm 2 m/S 749 mmHg 61%
    22:00 +21°C° 0 mm 2 m/S 749 mmHg 62%
    23:00 +21°C° 0 mm 2 m/S 749 mmHg 64%

    27 Mai, Sonntag

    Zeit Temperatur Niederschläge Wind Luftdruck Luftfeuchtigkeit
    00:00 +20°C° 0 mm 2 m/S 749 mmHg 65%
    01:00 +20°C° 0 mm 2 m/S 749 mmHg 67%
    02:00 +20°C° 0 mm 2 m/S 749 mmHg 70%
    03:00 +20°C° 0 mm 2 m/S 749 mmHg 73%
    04:00 +20°C° 0 mm 2 m/S 749 mmHg 75%
    05:00 +21°C° 0 mm 3 m/S 749 mmHg 72%
    06:00 +22°C° 0 mm 3 m/S 749 mmHg 69%
    07:00 +25°C° 0 mm 3 m/S 750 mmHg 66%
    08:00 +26°C° 0 mm 3 m/S 750 mmHg 61%
    09:00 +27°C° 0 mm 3 m/S 750 mmHg 56%
    10:00 +28°C° 0 mm 3 m/S 750 mmHg 51%
    11:00 +28°C° 0 mm 3 m/S 750 mmHg 50%
    12:00 +29°C° 0 mm 3 m/S 750 mmHg 49%
    13:00 +29°C° 0 mm 3 m/S 749 mmHg 48%
    14:00 +29°C° 0 mm 3 m/S 749 mmHg 48%
    15:00 +28°C° 0 mm 3 m/S 749 mmHg 49%
    16:00 +28°C° 0 mm 3 m/S 749 mmHg 50%
    17:00 +26°C° 0 mm 3 m/S 749 mmHg 56%
    18:00 +25°C° 0 mm 3 m/S 749 mmHg 62%
    19:00 +23°C° 0 mm 2 m/S 749 mmHg 68%
    20:00 +21°C° 0 mm 2 m/S 750 mmHg 70%
    21:00 +20°C° 0 mm 2 m/S 750 mmHg 73%
    22:00 +19°C° 0 mm 2 m/S 750 mmHg 75%
    23:00 +19°C° 0 mm 2 m/S 750 mmHg 75%

    28 Mai, Montag

    Zeit Temperatur Niederschläge Wind Luftdruck Luftfeuchtigkeit
    00:00 +19°C° 0 mm 2 m/S 750 mmHg 74%
    01:00 +18°C° 0 mm 2 m/S 749 mmHg 74%
    02:00 +18°C° 0 mm 2 m/S 749 mmHg 73%
    03:00 +18°C° 0 mm 2 m/S 749 mmHg 73%
    04:00 +18°C° 0 mm 2 m/S 749 mmHg 73%
    05:00 +19°C° 0 mm 2 m/S 749 mmHg 68%
    06:00 +21°C° 0 mm 2 m/S 749 mmHg 64%
    07:00 +24°C° 0 mm 2 m/S 749 mmHg 59%
    08:00 +25°C° 0 mm 2 m/S 749 mmHg 55%
    09:00 +27°C° 0 mm 2 m/S 749 mmHg 51%
    10:00 +28°C° 0 mm 2 m/S 749 mmHg 48%
    11:00 +28°C° 0 mm 2 m/S 749 mmHg 48%
    12:00 +28°C° 0 mm 2 m/S 749 mmHg 48%
    13:00 +29°C° 0 mm 2 m/S 749 mmHg 48%
    14:00 +28°C° 0,1 mm 2 m/S 749 mmHg 51%
    15:00 +27°C° 0,1 mm 2 m/S 748 mmHg 54%
    16:00 +27°C° 0,1 mm 2 m/S 748 mmHg 56%
    17:00 +25°C° 0,1 mm 2 m/S 748 mmHg 62%
    18:00 +24°C° 0,1 mm 1 m/S 748 mmHg 67%
    19:00 +23°C° 0,1 mm 1 m/S 748 mmHg 73%
    20:00 +22°C° 0 mm 1 m/S 748 mmHg 75%
    21:00 +22°C° 0 mm 1 m/S 748 mmHg 77%
    22:00 +21°C° 0 mm 1 m/S 749 mmHg 80%
    23:00 +21°C° 0 mm 1 m/S 748 mmHg 80%
    Mehr zeigen